Вернуться в каталог

CZ-6A DEB

АктивенSSO
NORAD 54331·DEBRIS·🇨🇳 China

Запущен Nov 11, 2022 с Taiyuan Satellite Launch Center

Loading…

Ближайшие Пролёты (ближайшие 24 часа)

TLE

СвежийSource: Space-Track

Эпоха: Sep 14, 2026, 09:07 UTC

1 54331U 22151CA  26257.38023498  .00000448  00000-0  33649-3 0  9990
2 54331  98.9163 224.6456 0120190 191.0705 168.7809 13.96149629194877

Отслеживайте CZ-6A DEB в реальном времени с AllMySat

Download on the App Store